www.pogodaiklimat.ru

Погода и климат >> Архив погоды >> Чили >> Isla De Pascua


ПОГОДА в Isla De Pascua

  • Прогноз погоды в Isla De Pascua
  • Монитор погоды в Isla De Pascua
  • Климат города

АРХИВ ПОГОДЫ в Isla De Pascua

Время (UTC), дата Ветер
(напр.,м/с)
 
Видим.   Явления Облачность Т
(С)
Тd
(С)
f
(%)
Тe
(С)
Тes
(С)
Комфортность P
(гПа)
Po
(гПа)
Тmin
(С)
Tmax
(С)
R
(мм)
R24
(мм)
S
(см)
12 18.06 ЮВ 8 10 км 4/4 600 м
[Cu hum]
+17.3 +9.8 61 +16 +16 1026.8 1021.7
15 18.06 Ю 5 10 км 5/4 600 м
[Cu Sc]
+16.1 +11.5 74 +15 +15 1028.3 1023.1 +15.3
18 18.06 ЮВ 8 10 км 6/5 600 м
[Cu Sc]
+19.1 +11.3 61 +19 +20 1029.4 1024.2
21 18.06 ЮВ 10 10 км 5/5 600 м
[Cu med, cong]
+20.2 +9.0 48 +21 +21 комфорт 1028.0 1022.8
00 19.06 ЮВ 8 10 км 4/4 600 м
[Cu med, cong]
+18.9 +10.3 57 +19 +19 1028.1 1022.9
03 19.06 ЮВ 9 15 км 6/6 600 м
[Cu Sc]
+18.0 +9.5 58 +17 +17 1029.5 1024.3 +21.0
06 19.06 ЮВ 10 15 км 6/6 600 м
[Cu Sc]
+17.6 +9.3 58 +16 +16 1029.9 1024.7
09 19.06 ЮВ 10 15 км 6/6 600 м
[Cu Sc]
+17.2 +7.9 54 +16 +16 1030.4 1025.2
12 19.06 ЮВ 10 15 км 6/6 600 м
[Cu Sc]
+15.9 +9.8 67 +14 +14 1029.6 1024.6
15 19.06 ЮВ 8 15 км {ливн. осадки} 6/6 600 м
[Cu Sc]
+17.5 +7.4 51 +16 +16 1030.1 1024.9 +14.4
18 19.06 ЮВ 9 15 км {ливн. осадки} 6/6 750 м
[Cu Sc]
+16.8 +11.1 69 +15 +16 1030.7 1025.5
21 19.06 ЮВ 8 15 км {ливн. осадки} 8/8 750 м
[Cu Sc]
+19.0 +10.7 59 +19 +19 1028.2 1023.0
00 20.06 ЮВ 8 15 км 8/8 750 м
[Cu Sc]
+18.0 +8.4 53 +17 +17 1027.6 1022.4
03 20.06 ЮВ 9 10 км 5/5 600 м
[Cu Sc]
+17.2 +10.9 66 +16 +16 1029.0 1023.8 +19.8
06 20.06 ЮВ 9 10 км 5/5 600 м
[Cu Sc]
+17.9 +9.9 59 +17 +17 1028.7 1023.5
12 20.06 ЮВ 7 10 км 8/5 600 м
[Cu Sc]
+17.8 +10.7 63 +17 +17 1027.3 1022.1
15 20.06 ЮВ 8 10 км {ливн. осадки} 6/6 600 м
[Cu Sc]
+17.9 +11.8 67 +17 +17 1028.2 1023.0 +15.1
18 20.06 ЮВ 11 10 км 8/8 750 м
[Cu Sc]
+19.7 +12.6 64 +20 +20 1028.0 1022.8
21 20.06 ЮВ 9 10 км 9/9 1050 м
[Cu Sc]
+20.0 +12.8 63 +21 +21 комфорт 1025.9 1020.7
00 21.06 ЮВ 9 10 км 8/8 900 м
[Cu Sc]
+18.9 +12.3 66 +19 +19 1025.7 1020.5
03 21.06 ЮВ 5 н/о н/о -52.7 1026.1 1020.9
06 21.06 ЮВ 8 15 км {ливн. осадки} 9/9 900 м
[Cu Sc]
+18.8 +11.7 63 +19 +19 1026.1 1020.9
09 21.06 ЮВ 8 15 км 10/10 600 м
[Cu Sc]
+17.9 +13.7 76 +17 +17 1024.5 1019.4
12 21.06 ЮВ 6 15 км 9/9 750 м
[Cu Sc]
+18.7 +11.4 63 +19 +19 1023.1 1017.9
15 21.06 ЮВ 7 10 км 8/6 750 м
[Cu Sc]
+18.8 +11.5 63 +19 +19 1023.8 1018.6 +17.9
18 21.06 ЮВ 7 10 км 6/6 600 м
[Cu Sc]
+21.0 +13.1 61 +23 +24 комфорт 1024.0 1018.9
21 21.06 ЮВ 7 10 км в посл. час ливневой дождь 8/8 600 м
[Cu Sc]
+18.3 +15.8 85 +18 +18 1022.6 1017.4
00 22.06 ЮВ 8 10 км в посл. час ливневой дождь 6/6 600 м
[Cu Sc]
+19.0 +13.9 72 +19 +19 1022.3 1017.2
03 22.06 ЮВ 8 10 км {ливн. осадки} 5/5 600 м
[Cu hum]
+19.0 +13.9 72 +19 +19 1023.4 1018.2 +21.3
06 22.06 ЮВ 8 10 км 6/6 600 м
[Cu hum]
+19.0 +15.1 78 +19 +19 1023.7 1018.5
12 22.06 ЮВ 6 10 км 3/3 600 м
[Cu hum]
+18.3 +15.8 85 +18 +18 1022.8 1017.6
15 22.06 ЮВ 7 15 км 8/8 600 м
[Cu Sc Ci]
+19.6 +16.1 80 +21 +21 комфорт 1024.8 1019.6 +17.2
18 22.06 В 8 15 км 6/6 750 м
[Cu med, cong]
+22.3 +16.7 71 +27 +27 душно 1025.9 1020.8
21 22.06 ЮВ 9 15 км 4/4 750 м
[Cu med, cong]
+22.4 +15.4 65 +26 +27 жарко 1024.5 1019.4
00 23.06 ЮВ 8 15 км 6/6 750 м
[Cu med, cong]
+20.9 +15.5 71 +24 +24 комфорт 1024.6 1019.5
03 23.06 ЮВ 8 10 км 6/6 750 м
[Cu hum]
+20.0 +15.7 76 +22 +22 комфорт 1026.1 1020.9 +22.8
06 23.06 ЮВ 8 10 км 5/5 600 м
[Cu hum]
+19.7 +15.8 78 +21 +21 комфорт 1027.3 1022.1
09 23.06 В 7 10 км пыль {ливн. осадки, дождь} 6/6 600 м
[Cu hum]
+19.4 +16.1 81 +21 +21 комфорт 1026.6 1021.4
12 23.06 В 7 10 км 5/5 600 м
[Cu hum]
+19.5 +15.4 77 +21 +21 комфорт 1025.9 1020.7
15 23.06 В 8 10 км 5/5 600 м
[Cu med, cong]
+19.9 +15.7 77 +22 +22 комфорт 1027.1 1021.9 +18.9
18 23.06 ЮВ 9 10 км 6/6 600 м
[Cu med, cong]
+21.8 +16.0 70 +26 +26 душно 1028.0 1022.9
21 23.06 ЮВ 9 10 км 5/5 600 м
[Cu med, cong]
+21.8 +16.4 71 +26 +26 душно 1026.7 1021.6
00 24.06 В 8 10 км 5/5 600 м
[Cu Sc]
+20.4 +16.5 78 +23 +23 комфорт 1026.7 1021.5
03 24.06 В 8 15 км 6/6 600 м
[Cu med, cong]
+19.7 +16.6 82 +21 +21 комфорт 1027.5 1022.3 +23.0
06 24.06 В 6 15 км 5/5 600 м
[Cu med, cong]
+18.9 +16.0 83 +20 +20 1028.6 1023.4
12 24.06 В 5 15 км 4/4 750 м
[Cu med, cong]
+19.3 +15.8 80 +21 +21 комфорт 1027.2 1022.0
18 24.06 В 7 15 км 4/4 600 м
[Cu med, cong]
+22.4 +17.2 72 +27 +28 душно 1028.5 1023.4
21 24.06 В 9 15 км 5/5 600 м
[Cu med, cong]
+22.3 +17.1 72 +27 +27 душно 1026.7 1021.6
00 25.06 В 6 15 км {ливн. осадки} 8/8 600 м
[Cu Sc]
+20.4 +17.3 82 +23 +23 комфорт 1026.9 1021.7
03 25.06 В 6 10 км 6/6 600 м
[Cu Sc]
+20.1 +17.5 85 +23 +23 комфорт 1028.2 1023.0 +22.9
06 25.06 В 4 10 км 4/4 600 м
[Cu med, cong]
+18.4 +16.7 90 +19 +19 1028.8 1023.6

 

Местоположение метеостанции Isla De Pascua (Чили): широта -27.16 долгота -109.40 высота над уровнем моря 69 м.

В архиве по умолчанию представлена погода в Isla De Pascua за последнюю неделю. Архивные данные за месяц целиком и за предыдущие месяцы, начиная с января 2011 года, Вы можете получить, выбрав интересующий диапазон дат из раскрывающегося списка и нажав кнопку "Ввод!".


*Определитесь, кто Вы:
робот инопланетянин человек

Внимание! Время в таблицах - всемирное. Для получения местного времени необходимо прибавить поправку, которая в Isla De Pascua равна -4 ч.

Смотрите также архив погоды в соседних городах и на ближайших метеорологических станциях:

Пояснения к столбцам:

Ветер - указаны скорость ветра в м/с - средняя за 10 мин, порывы в срок и между сроками (в фигурных скобках) и направление, откуда дует ветер: С - северный, СВ - северо-восточный, В - восточный, ЮВ - юго-восточный, Ю - южный, ЮЗ - юго-западный, З - западный, СЗ - северо-западный.
Видимость - горизонтальная дальность видимости в метрах или километрах. При видимости от 1 до 10 км при отсутствии осадков обычно наблюдается дымка, при ухудшении видимости до 1 км и менее - туман. В сухую погоду видимость может ухудшаться дымом, пылью или мглою.
Явления - указаны атмосферные явления, наблюдавшиеся в срок или в последний час перед сроком; фигурными скобками обозначены явления, наблюдавшиеся между сроками (за 1-3 часа до срока); квадратными скобками обозначены град или гололедные отложения с указанием их диаметра в мм.
Облачность - указаны через наклонную черту общая и нижняя облачность в баллах и высота нижней границы облаков в метрах; квадратными скобками обозначены формы облаков: Ci - перистые, Cs - перисто-слоистые, Cc - перисто-кучевые, Ac - высококучевые, As - высокослоистые, Sc - слоисто-кучевые, Ns - слоисто-дождевые, Cu - кучевые, Cb - кучево-дождевые. Подробнее классификацию облаков см. в Атласе облаков (PDF).
T - Температура воздуха - температура, измеренная на высоте 2 м над землей.
Td - Температура точки росы - температура, при понижении до которой содержащийся в воздухе водяной пар достигнет насыщения.
f - Относительная влажность воздуха - влажноcть воздуха, измеренная на высоте 2 м над землей.
Te - Эффективная температура - температура, которую ощущает одетый по сезону человек в тени. Характеристика душности погоды. При расчете учитывается влияние влажности воздуха и скорости ветра на теплоощущения человека.
Tes - Эффективная температура на солнце - температура, которую ощущает человек, с поправкой на солнечный нагрев. Характеристика знойности погоды. Зависит от высоты солнца над горизонтом, облачности и скорости ветра. Ночью, в пасмурную погоду, а также при ветре 12 м/с и более поправка равна нулю.
P - Атмосферное давление - приведенное к уровню моря атмосферное давление.
Po - Атмосферное давление - измеренное на уровне метеостанции атмосферное давление.
Tmin - Минимальная температура - минимум температуры воздуха на высоте 2 м над землей.
Tmax - Максимальная температура - максимум температуры воздуха на высоте 2 м над землей.
R - Количество осадков - Количество выпавших осадков за период времени, мм. При наведении курсора мыши на число - период времени, за который выпало указанное количество осадков.
R24 - Количество осадков - Количество выпавших осадков за 24 часа, мм.
S - Снежный покров - Высота снежного покрова, см. При наведении курсора мыши на число - состояние снежного покрова и степень покрытия местности в баллах.